COSMOS 1275 DEB

Satellite information

Favourite Embed

Satellite Type and Status

DEBRISIN ORBIT

Key statistics

Satellite COSMOS 1275 DEB at a glance.

Uptime

16105

Days in orbit

Revolutions

≈ 14.1

Per day

Orbit

LEO

Low Earth Orbit

Inclination

83.0

Latest

Satellite identification and parameters

Extended collection of information and parameters for COSMOS 1275 DEB.

Object identification

Identified? True

Debris? True

Object name: COSMOS 1275 DEB

International designator: 1981-053AX

Object number (NORAD): 12703

Object ID (CCSDS): 12703

Country: COMMONWEALTH OF INDEPENDENT STATES (CIS)

Current information (Y/N): Y

RCS size: SMALL

Orbital parameters

Period: 102.088 minutes

Inclination: 82.9673 deg

SMA: 7235.626 km

Apoapsis: 866.984 km

Periapsis: 847.998 km

RAAN: 107.7368 deg

Eccentricy: 0.001312

Argument of periapsis: 290.9246 deg

Mean anomaly: 69.0526 deg

Mean motion: 14.10550442 rev/day

Mean motion (dot): 0.0000076 rev/day2

B* drag term: 0.00041756 1/REarth

Two-line elements (TLE)

Creation date: July 6, 2025, 10:56 p.m.

Reference frame: TEME

Reference center: EARTH

Epoch: July 6, 2025, 8:05 p.m. UTC

TLE line 0: 0 COSMOS 1275 DEB

TLE line 1: 1 12703U 81053AX 25187.83749766 .00000760 00000-0 41756-3 0 9992

TLE line 2: 2 12703 82.9673 107.7368 0013120 290.9246 69.0526 14.10550442238659

Live tracking on map

Real-time ground track for satellite COSMOS 1275 DEB.

In-orbit conjunctions

A list of the most updated potential collisions computed for object COSMOS 1275 DEB.

Target Orbit TCA Probability of collision Miss distance Type
YAOGAN 4 DEB SSO 2024-09-20 19:18:11 0.0001400897 163.0 (m) DEBRIS
FENGYUN 1C DEB SSO 2024-07-03 01:33:01 0.0001701043 395.0 (m) DEBRIS

Associated space launch

Navigation satellite providing location information for the Tsiklon-B navigation system

COSMOS 1275 DEB was lifted into orbit during the mission ‘Kosmos-3M | Parus 27’, on board a Kosmos-3M space rocket.

The launch took place on June 4, 1981, 3:41 p.m. from 132/2.

For more information about the launch, click the button.

Launch to space Kosmos-3M | Parus 27
Kosmos-3M | Parus 27

Agency: N/A

Status: Launch Successful

Launch date: June 4, 1981, 3:41 p.m. UTC

Rocket: Kosmos-3M

Launch pad: 132/2

Location: Plesetsk Cosmodrome, Russian Federation

...

Latest news about this satellite

There are no fresh news available about this satellite. Check back as we update our databases every day.


Newsletter sign-up

Weekly statistics, charts and insights to help you stay on top of the space industry.